sat.trackr.live / text

‹ back to catalog

STARLINK-33608

NORAD 63425 · 2025-065AC

PAYLOAD ACTIVE UNKNOWN

§ Identity

Operator
Country
US
Launch date
2025-03-31
Launch site
AFETR
Launch vehicle
Mass (kg)
RCS (m²)

Purposes: comms

External: N2YO · Heavens-Above · Gunter

§ Orbital elements

Epoch: 2026-05-24T23:00:25.619040Z

Period
94.27 min
Inclination
43.0020°
Eccentricity
0.0001523
Mean motion
15.27583987 rev/d
Perigee alt
482.0 km
Apogee alt
484.1 km
Semi-major
6,861.2 km
B*
6.4219e-4
RAAN
36.3282°
Arg perigee
228.2085°
Mean anomaly
131.8637°
Rev number
6,450

§ Raw data

STARLINK-336081 63425U 25065AC  26144.95862985  .00017454  00000+0  64219-3 0  99922 63425  43.0020  36.3282 0001523 228.2085 131.8637 15.27583987 64502

JSON: /api/v1/satellites/63425 · /tle

For live sub-satellite position, see the globe view (requires WebGL).

§ Visibility from observer

Set your observer location to see the next 7 days of passes ≥ 10°. The values pass through the URL so the page stays shareable.

No JS? Fill the form by hand. The geolocation button needs JavaScript.